Jamestown, NY

12:22 AM EST on December 08, 2019 (GMT -0500)
Chautauqua County-Jamestown

Weather History for KJHW - October, 2019

Change the Weather History Date:

Monday, October 7, 2019

  Actual Average Record
Temperature  
Mean Temperature 52 °F -  
Max Temperature 57 °F 61 °F 79 °F (1982)
Min Temperature 48 °F 39 °F 30 °F (1960)
Degree Days  
Heating Degree Days 12    
Growing Degree Days 2 (Base 50)    
Moisture  
Dew Point 50 °F    
Average Humidity 95    
Maximum Humidity 100    
Minimum Humidity 77    
Precipitation  
Precipitation 0.44 in - - ()
Sea Level Pressure  
Sea Level Pressure 30.18 in    
Wind  
Wind Speed 6 mph (SW)    
Max Wind Speed 13 mph    
Max Gust Speed -    
Visibility 5 miles    
Events Fog , Rain    
Averages and records for this station are not official NWS values.
T = Trace of Precipitation, MM = Missing Value Source: NWS Daily Summary

Daily Weather History Graph

Daily Weather History Graph

Search for Another Location

Airport or City:

Astronomy

Oct. 07, 2019 Rise Set
Actual Time 7:20 AM EDT 6:48 PM EDT
Civil Twilight 6:52 AM EDT 7:16 PM EDT
Nautical Twilight 6:19 AM EDT 7:49 PM EDT
Astronomical Twilight 5:47 AM EDT 8:21 PM EDT
Moon 4:16 PM EDT (10/7) 1:03 AM EDT (10/7)
Length of Visible Light 12h 24m
Length of Day
11h 28m
Waxing Gibbous, 69% of the Moon is Illuminated
Oct 7
Waxing Gibbous
Oct 13
Full
Oct 21
Last Quarter
Oct 27
New
Nov 4
First Quarter

Hourly Weather History & Observations

Time (EDT) Temp. Dew Point Humidity Pressure Visibility Wind Dir Wind Speed Gust Speed Precip Events Conditions
12:56 AM 57.0 °F 55.9 °F 96% 30.14 in 7.0 mi WSW 5.8 mph - 0.00 in Rain Light Rain
1:37 AM 55.4 °F 53.6 °F 94% 30.14 in 8.0 mi West 12.7 mph - 0.04 in Rain Rain
1:49 AM 53.6 °F 48.2 °F 82% 30.13 in 10.0 mi WNW 10.4 mph - 0.08 in Rain Rain
1:56 AM 53.1 °F 48.9 °F 86% 30.14 in 10.0 mi West 9.2 mph - 0.09 in Rain Light Rain
2:56 AM 50.0 °F 48.0 °F 93% 30.13 in 9.0 mi SSW 5.8 mph - 0.17 in Rain Rain
3:28 AM 50.0 °F 48.2 °F 94% 30.11 in 10.0 mi South 4.6 mph - 0.05 in Rain Light Rain
3:56 AM 50.0 °F 48.9 °F 96% 30.12 in 5.0 mi Calm Calm - 0.07 in Rain Light Rain
4:08 AM 50.0 °F 48.2 °F 94% 30.10 in 1.8 mi SSE 3.5 mph - 0.02 in Rain Rain
4:19 AM 50.0 °F 50.0 °F 100% 30.10 in 3.0 mi Calm Calm - 0.04 in Rain Light Rain
4:28 AM 50.0 °F 50.0 °F 100% 30.10 in 1.8 mi South 4.6 mph - 0.04 in Rain Light Rain
4:33 AM 50.0 °F 50.0 °F 100% 30.11 in 0.8 mi South 4.6 mph - 0.05 in Rain Light Rain
4:45 AM 50.0 °F 50.0 °F 100% 30.11 in 0.8 mi South 5.8 mph - 0.05 in Rain Light Rain
4:53 AM 50.0 °F 50.0 °F 100% 30.12 in 1.0 mi South 6.9 mph - 0.06 in Rain Light Rain
4:56 AM 50.0 °F 50.0 °F 100% 30.14 in 1.2 mi South 6.9 mph - 0.07 in Rain Light Rain
4:59 AM 50.0 °F 50.0 °F 100% 30.12 in 2.5 mi South 6.9 mph - 0.00 in Rain Light Rain
5:06 AM 50.0 °F 50.0 °F 100% 30.12 in 6.0 mi South 5.8 mph - 0.01 in Rain Light Rain
5:47 AM 51.8 °F 50.0 °F 94% 30.13 in 10.0 mi SSW 6.9 mph - 0.02 in Rain Light Rain
5:56 AM 51.1 °F 50.0 °F 96% 30.15 in 10.0 mi SSW 5.8 mph - 0.03 in Rain Light Rain
6:11 AM 51.8 °F 50.0 °F 94% 30.14 in 10.0 mi SSW 4.6 mph - 0.00 in Rain Light Rain
6:56 AM 51.1 °F 51.1 °F 100% 30.15 in 10.0 mi SW 6.9 mph - 0.00 in Rain Light Rain
7:20 AM 51.8 °F 51.8 °F 100% 30.14 in 10.0 mi SW 6.9 mph - 0.00 in Rain Light Rain
7:56 AM 52.0 °F 51.1 °F 97% 30.16 in 10.0 mi SW 6.9 mph - 0.01 in   Overcast
8:56 AM 52.0 °F 51.1 °F 97% 30.17 in 10.0 mi SW 8.1 mph - N/A   Overcast
9:09 AM 51.8 °F 51.8 °F 100% 30.16 in 10.0 mi SW 8.1 mph - 0.00 in Rain Light Rain
9:42 AM 51.8 °F 51.8 °F 100% 30.15 in 10.0 mi SW 8.1 mph - 0.00 in   Overcast
9:56 AM 53.1 °F 51.1 °F 93% 30.18 in 10.0 mi WSW 10.4 mph - 0.00 in   Overcast
10:06 AM 53.6 °F 51.8 °F 94% 30.16 in 10.0 mi SW 10.4 mph - N/A   Overcast
10:56 AM 54.0 °F 51.1 °F 90% 30.18 in 10.0 mi SW 8.1 mph - N/A   Mostly Cloudy
11:56 AM 55.0 °F 52.0 °F 89% 30.18 in 10.0 mi SSW 8.1 mph - N/A   Partly Cloudy
12:56 PM 55.9 °F 52.0 °F 87% 30.18 in 10.0 mi WSW 8.1 mph - N/A   Clear
1:56 PM 57.0 °F 51.1 °F 81% 30.17 in 10.0 mi SW 6.9 mph - N/A   Clear
2:56 PM 57.0 °F 50.0 °F 77% 30.17 in 10.0 mi SW 8.1 mph - N/A   Partly Cloudy
3:56 PM 57.0 °F 50.0 °F 77% 30.17 in 10.0 mi West 9.2 mph - N/A   Clear
4:56 PM 55.9 °F 51.1 °F 84% 30.17 in 10.0 mi WSW 5.8 mph - N/A   Clear
5:56 PM 55.0 °F 51.1 °F 86% 30.19 in 10.0 mi WSW 6.9 mph - N/A   Clear
6:56 PM 54.0 °F 50.0 °F 86% 30.19 in 10.0 mi West 8.1 mph - N/A   Clear
8:30 PM 50.0 °F 48.2 °F 94% 30.19 in 1.8 mi South 3.5 mph - N/A   Clear
8:40 PM 51.8 °F 50.0 °F 94% 30.20 in 3.0 mi South 3.5 mph - N/A   Clear
8:47 PM 50.0 °F 48.2 °F 94% 30.21 in 1.8 mi South 3.5 mph - N/A   Clear
8:49 PM 50.0 °F 48.2 °F 94% 30.21 in 1.0 mi SSW 3.5 mph - N/A   Mist
8:52 PM 50.0 °F 48.2 °F 94% 30.21 in 0.5 mi South 3.5 mph - N/A Fog Fog
8:56 PM 48.9 °F 48.9 °F 100% 30.24 in 0.5 mi Calm Calm - N/A Fog Fog
9:01 PM 50.0 °F 50.0 °F 100% 30.21 in 1.0 mi Calm Calm - N/A   Mist
9:07 PM 51.8 °F 50.0 °F 94% 30.21 in 2.5 mi Calm Calm - N/A   Partly Cloudy
9:16 PM 50.0 °F 50.0 °F 100% 30.22 in 1.0 mi Calm Calm - N/A   Mist
9:18 PM 50.0 °F 48.2 °F 94% 30.21 in 0.8 mi Calm Calm - N/A   Mist
9:28 PM 51.8 °F 50.0 °F 94% 30.22 in 1.5 mi SW 4.6 mph - N/A   Clear
9:40 PM 51.8 °F 51.8 °F 100% 30.22 in 0.8 mi WSW 5.8 mph - N/A   Clear
9:44 PM 51.8 °F 51.8 °F 100% 30.22 in 1.5 mi WSW 5.8 mph - N/A   Clear
9:47 PM 51.8 °F 51.8 °F 100% 30.22 in 3.0 mi WSW 5.8 mph - N/A   Clear
9:56 PM 52.0 °F 51.1 °F 97% 30.25 in 5.0 mi WSW 4.6 mph - N/A   Clear
10:10 PM 50.0 °F 50.0 °F 100% 30.23 in 1.8 mi WSW 5.8 mph - N/A   Clear
10:16 PM 50.0 °F 50.0 °F 100% 30.23 in 0.8 mi WSW 4.6 mph - N/A   Clear
10:21 PM 50.0 °F 50.0 °F 100% 30.23 in 0.5 mi SW 4.6 mph - N/A Fog Fog
10:48 PM 50.0 °F 50.0 °F 100% 30.24 in 0.8 mi SW 4.6 mph - N/A   Mist
10:56 PM 50.0 °F 50.0 °F 100% 30.27 in 0.5 mi SW 4.6 mph - N/A Fog Fog
11:10 PM 50.0 °F 48.2 °F 94% 30.25 in 0.2 mi SW 5.8 mph - N/A Fog Fog
11:56 PM 48.9 °F 48.9 °F 100% 30.27 in 0.2 mi Calm Calm - N/A Fog Fog